Location: Unspecified
(0.0000°N, 0.0000°E)
Time: 18:00:12
(UTC+00:00)

COSMOS 2453 - Visible Passes

Search period start: 18 May 2026 00:00
Search period end: 28 May 2026 00:00
Orbit: 1496 x 1505 km, 82.5° (Epoch: 18 May)

Date Brightness Start Highest point End Pass type
(mag) Time Alt. Az. Time Alt. Az. Time Alt. Az.
18 May ? 02:57:37 10° N 03:06:19 69° E 03:06:33 69° E visible
18 May ? 04:59:18 10° WNW 05:02:29 13° W 05:02:29 13° W visible
19 May ? 02:11:07 10° NNE 02:17:42 32° ENE 02:17:42 32° ENE visible
19 May ? 04:07:44 10° NW 04:13:39 30° WNW 04:13:39 30° WNW visible
20 May ? 01:27:17 10° ENE 01:29:06 12° ENE 01:29:06 12° ENE visible
20 May ? 03:18:52 10° NNW 03:25:03 49° NNW 03:25:03 49° NNW visible
21 May ? 02:31:18 10° N 02:36:40 40° NNE 02:36:40 40° NNE visible
21 May ? 04:31:44 10° WNW 04:32:38 12° WNW 04:32:38 12° WNW visible
22 May ? 01:45:05 10° NNE 01:48:24 21° NE 01:48:24 21° NE visible
22 May ? 03:40:59 10° NNW 03:44:23 23° NW 03:44:23 23° NW visible
23 May ? 02:52:22 10° N 02:56:13 30° NNW 02:56:13 30° NNW visible
24 May ? 02:05:01 10° NNE 02:08:08 24° NNE 02:08:08 24° NNE visible
25 May ? 01:19:07 10° NE 01:20:08 13° NE 01:20:08 13° NE visible
25 May ? 03:14:17 10° NNW 03:16:08 17° NNW 03:16:08 17° NNW visible
26 May ? 02:25:55 10° N 02:28:11 21° N 02:28:11 21° N visible
27 May ? 01:38:45 10° NNE 01:40:16 16° NNE 01:40:16 16° NNE visible
